#timestamp,LO_Frequency,Hit,StdDev 
1638187215.4,286046990.6,N
1638187235.2,286046991.0,N
1638187255.0,286046987.5,N
1638187255.9,286046987.5,N
1638187275.8,286046983.7,Y
1638187295.6,286046989.2,P
1638187315.4,286046986.5,P
1638187335.3,286046986.9,P
1638187355.1,286046992.2,N
1638187375.9,286046990.0,N
1638187395.7,286046988.5,Y
1638187415.5,286047004.6,P
1638187435.4,286047007.9,N
1638187455.2,286047007.5,N
1638187475.0,286047003.2,N
1638187476.0,286047003.2,N
1638187495.8,286046999.9,N
1638187515.6,286047000.4,N
1638187535.5,286047005.0,N
1638187555.3,286047004.6,N
1638187575.1,286047002.4,N
1638187595.9,286047002.8,N
1638187615.7,286046998.7,N
1638187635.5,286046993.0,N
1638187655.4,286046994.6,N
1638187675.2,286046990.1,N
1638187695.1,286046994.1,N
1638187696.0,286046994.1,N
1638187715.8,286046990.5,N
1638187735.6,286046996.2,N
1638187755.5,286046996.5,N
1638187775.3,286046996.3,N
1638187795.2,286046994.6,N
1638187815.9,286046990.5,N
1638187835.7,286046991.8,N
1638187855.6,286047000.4,N
1638187875.4,286046998.5,N
1638187895.2,286046994.4,N
1638187915.1,286046994.2,N
1638187916.0,286046994.2,N
1638187935.8,286046992.8,N
1638187955.7,286046993.2,N
1638187975.5,286046994.8,N
1638187995.3,286046992.6,N
1638188015.2,286046999.7,N
1638188035.0,286047003.6,N
1638188035.9,286047003.6,N
1638188055.7,286047000.2,N
1638188075.6,286047001.3,N
1638188095.4,286047005.9,N
1638188115.3,286047003.0,N
1638188135.1,286047003.8,N
1638188136.0,286047003.8,N
1638188155.8,286046996.6,N
1638188175.7,286046993.3,N
1638188195.5,286046993.4,N
1638188215.3,286046988.7,N
1638188235.2,286046989.8,N
1638188255.0,286046987.8,N
1638188255.9,286046987.8,N
1638188275.8,286046986.9,N
1638188295.6,286046991.7,N
1638188315.4,286046993.0,N
1638188335.3,286046992.9,N
1638188355.1,286046994.5,N
1638188375.8,286046997.7,N
1638188395.7,286047000.4,N
1638188415.5,286047004.6,N
1638188435.4,286047004.6,N
1638188455.2,286047009.0,N
1638188475.0,286047001.7,N
1638188475.9,286047001.7,N
1638188495.8,286047005.3,N
1638188515.6,286047002.9,N
1638188535.4,286047010.4,N
1638188555.3,286047005.3,N
1638188575.1,286047002.2,N
1638188595.9,286047004.3,N
1638188615.7,286047000.1,N
1638188635.5,286046995.2,N
1638188655.4,286046994.8,N
1638188675.2,286046987.3,N
1638188695.0,286046984.7,N
1638188695.9,286046984.7,N
1638188715.8,286046991.1,N
1638188735.6,286046993.9,N
1638188755.5,286046991.5,N
1638188775.3,286046991.2,N
1638188795.1,286046991.5,N
1638188815.9,286046992.2,N
1638188835.7,286046992.2,N
1638188855.5,286046993.8,N
1638188875.4,286047000.0,N
1638188895.2,286047000.0,N
1638188915.1,286047007.0,N
1638188916.0,286047007.0,N
1638188935.8,286047009.2,N
1638188955.6,286047004.4,N
1638188975.5,286046998.5,N
1638188995.3,286047003.1,N
1638189015.1,286047005.1,N
1638189035.9,286047003.5,N
1638189055.8,286046996.7,N
1638189075.7,286046996.3,N
1638189095.5,286046998.7,N
1638189145.4,286047003.2,E
1638189155.3,286047000.9,N
1638189175.1,286047003.1,P
1638189195.9,286047002.4,N
1638189215.7,286047007.2,Y
1638189235.5,286047000.2,P
1638189255.4,286047002.2,N
1638189275.2,286047005.5,P
1638189295.1,286047003.5,N
1638189296.0,286047003.5,N
1638189315.8,286046997.6,N
1638189335.6,286046994.0,N
1638189355.5,286047002.6,N
1638189375.3,286047005.0,N
1638189395.1,286047001.7,N
1638189415.9,286047005.9,N
1638189435.7,286047001.9,N
1638189455.6,286046997.6,N
1638189475.4,286046994.0,N
1638189495.2,286046994.8,N
1638189515.1,286046994.1,N
1638189516.0,286046994.1,N
1638189535.8,286046993.7,N
1638189555.6,286046992.3,N
1638189575.5,286046991.4,N
1638189595.3,286046990.7,N
1638189615.2,286046988.2,N
1638189635.9,286046986.1,N
1638189655.7,286046983.7,N
1638189675.6,286046989.1,N
1638189695.4,286046986.3,N
1638189715.2,286046990.4,N
1638189735.1,286046994.4,N
1638189736.0,286046994.4,N
1638189755.8,286046994.2,N
1638189775.7,286046988.9,N
1638189795.5,286046991.3,N
1638189815.3,286046986.2,N
1638189835.2,286046980.7,Y
1638189855.0,286046991.2,P
1638189855.9,286046991.2,P
1638189875.8,286046987.5,P
1638189895.6,286046988.8,Y
1638189915.4,286046996.6,P
1638189935.3,286046999.0,N
1638189955.1,286046993.3,N
1638189975.8,286046996.4,N
1638189995.7,286046995.4,N
1638190015.5,286046999.6,N
1638190035.4,286046999.9,N
1638190055.2,286047000.2,N
1638190075.0,286046999.8,N
1638190075.9,286046999.8,N
1638190095.8,286047000.2,N
1638190115.6,286046999.3,N
1638190135.4,286047001.1,N
1638190155.3,286046999.5,N
1638190175.1,286046996.0,N
1638190195.9,286046999.4,N
1638190215.7,286046998.6,N
1638190235.5,286046999.0,N
1638190255.4,286046998.2,N
1638190275.2,286046996.6,N
1638190295.0,286046997.4,N
1638190295.9,286046997.4,N
1638190315.8,286046997.7,N
1638190335.6,286046997.4,N
1638190355.5,286046996.8,N
1638190375.3,286046998.3,N
1638190395.1,286046998.6,N
1638190415.9,286046997.2,N
1638190435.7,286046997.8,N
1638190455.5,286047001.0,N
1638190475.4,286047004.3,N
1638190495.2,286047004.4,N
1638190515.1,286047004.4,N
1638190516.0,286047004.4,N
1638190535.8,286047001.9,N
1638190555.6,286047008.7,Y
1638190575.5,286047004.5,P
1638190595.3,286047005.4,N
1638190615.1,286047007.3,N
1638190635.9,286047008.5,N
1638190655.7,286047012.4,Y
1638190675.6,286047009.1,P
1638190695.4,286047004.0,N
1638190715.2,286047005.4,N
1638190735.1,286047002.9,N
1638190736.0,286047002.9,N
1638190755.8,286047005.0,N
1638190775.7,286047002.1,N
1638190795.5,286047003.1,N
